Flag for Japan Weather past 2 weeks in Hamamatsu, Japan

Now
59 °F

Light rain. Cloudy.


Feels Like: 58 °F
Forecast: 54 / 60 °F
Wind: 8 mph from West

Location: Omaezaki

Current Time: Apr 1, 2015 at 7:11:39 AM

Latest Report: Apr 1, 2015 at 5:00 AM


Visibility: 3 mi

Pressure: 29.96 "Hg

Humidity: 91%

Dew point: 56 °F

Location of HamamatsuLocation

Historic Weather in Hamamatsu — Graph

°F

Hamamatsu temperature yesterday

Maximum temperature yesterday: 65 °F (at 1:00 PM)
Minimum temperature yesterday: 52 °F (at 6:00 AM)
Average temperature yesterday: 59 °F

Past Weeks' High & Low Weather Summary

 TemperatureHumidityPressure
High65 °F (Mar 31, 1:00 PM)100% (Mar 18, 2:00 AM)30.46 "Hg (Mar 18, 2:00 AM)
Low36 °F (Mar 26, 5:00 AM)22% (Mar 23, 9:00 AM)29.66 "Hg (Mar 19, 3:00 PM)
Average54 °F69%30.07 "Hg
* Reported Mar 17 5:00 AM — Apr 1 5:00 AM, Hamamatsu, Weather by CustomWeather, © 2015

Note: Actual official high and low records may vary slightly from our data, if they occured in-between our weather recording intervals... More about our weather records

Advertising

Hamamatsu weather history for previous 24 hours

 ConditionsComfort  
Time TempWeatherWind HumidityBarometerVisibility
5:00 AM
Wed, Apr 1
59 °FLight rain. Cloudy.8 mph91%29.96 "Hg3 mi
4:00 AM59 °FFog.9 mph91%29.96 "Hg2 mi
3:00 AM59 °FFog.8 mph90%29.96 "Hg4 mi
2:00 AM60 °FFog.8 mph88%29.98 "Hg4 mi
1:00 AM60 °FFog.6 mph88%30.01 "Hg4 mi
12:00 AM58 °FFog.8 mph89%30.02 "Hg3 mi
11:00 PM
Tue, Mar 31
59 °FFog.8 mph91%30.04 "Hg3 mi
10:00 PM60 °FFog.9 mph88%30.05 "Hg5 mi
9:00 PM60 °FCool.8 mph86%30.07 "Hg6 mi
8:00 PM60 °FFog.13 mph86%30.08 "Hg6 mi
7:00 PM60 °FCool.13 mph84%30.06 "Hg7 mi
6:00 PM60 °FCool.14 mph75%30.06 "Hg9 mi
5:00 PM62 °FCool.9 mph75%30.06 "Hg10 mi
4:00 PM63 °FMild.13 mph67%30.06 "Hg12 mi
3:00 PM64 °FMild.12 mph65%30.07 "Hg11 mi
2:00 PM65 °FMild.8 mph65%30.09 "Hg9 mi
1:00 PM65 °FMild.10 mph69%30.12 "Hg7 mi
12:00 PM64 °FMild.10 mph73%30.15 "Hg8 mi
11:00 AM63 °FMild.8 mph77%30.18 "Hg8 mi
10:00 AM62 °FCool.6 mph74%30.19 "Hg8 mi
9:00 AM60 °FCool.6 mph77%30.20 "Hg9 mi
8:00 AM58 °FCool.2 mph84%30.20 "Hg7 mi
7:00 AM55 °FCool.3 mph89%30.20 "Hg6 mi
Weather by CustomWeather, © 2015

See weather overviewHow to use our weather pages